Simultaneous Nadir Overpasses (SNOs) Predictions

Prediction of SNOs between GOES-15 and TERRA Satellite Orbit:

Table of predicted SNOs for the next 14.0 days since TLE Epoch: 2/19/2012
Index Date Time (GOES-15) GOES-15 Lat,Lon TERRA Lat,Lon Distance(km) Time Diff (sec)
1 02/20/2012 07:21:53 -0.00,-135.34 0.42,-133.46 214.72 80
2 02/20/2012 19:45:49 0.01,-135.35 0.69,-138.62 371.13 80
3 02/22/2012 19:33:39 0.00,-135.38 0.07,-135.66 32.09 80
4 02/24/2012 19:18:49 0.00,-135.41 -0.56,-132.71 306.59 80
5 02/25/2012 07:42:53 -0.00,-135.42 -0.56,-137.90 282.88 80
6 02/27/2012 07:28:03 -0.00,-135.44 0.08,-134.95 55.22 80
7 02/29/2012 07:15:53 -0.01,-135.46 0.73,-132.01 392.57 80
8 02/29/2012 19:39:49 0.01,-135.46 0.37,-137.17 193.78 80
9 03/02/2012 19:24:58
